N4RCT Weather Reports


Display with metric or nautical units.
time (UTC)temp
F
wind
direction
speed
MPH
gust
MPH
rain 1hr
in
rain 24hr
in
rain mn
in
humidity
%
barometer
mb
20260502152057 62 14 0.0 1.0 0.00 0.00 0.00 53 1013.7
20260502151554 62 176 1.0 2.0 0.00 0.00 0.00 56 1013.8
20260502151052 62 221 1.0 1.0 0.00 0.00 0.00 52 1013.8
20260502150549 61 284 2.0 2.0 0.00 0.00 0.00 53 1013.3
20260502130434 55 124 0.0 0.0 0.00 0.00 0.00 72 1012.7
20260502123417 53 142 0.0 0.0 0.00 0.00 0.00 73 1012.6
20260502122914 53 173 1.0 1.0 0.00 0.00 0.00 74 1012.4
20260502122410 53 148 0.0 0.0 0.00 0.00 0.00 74 1012.3
20260502121908 53 140 0.0 0.0 0.00 0.00 0.00 74 1012.5
20260502121405 53 106 0.0 0.0 0.00 0.00 0.00 71 1012.3
20260502120903 53 143 0.0 0.0 0.00 0.00 0.00 75 1012.4
20260502120358 53 152 0.0 0.0 0.00 0.00 0.00 75 1012.7
20260502115856 53 160 0.0 1.0 0.00 0.00 0.00 73 1012.4
20260502115353 53 144 0.0 0.0 0.00 0.00 0.00 73 1012.3
20260502114849 53 122 0.0 0.0 0.00 0.00 0.00 70 1012.1
20260502114346 53 156 0.0 0.0 0.00 0.00 0.00 70 1012.0
20260502113843 53 129 0.0 0.0 0.00 0.00 0.00 71 1012.0
20260502113341 53 134 0.0 0.0 0.00 0.00 0.00 71 1012.2
20260502112839 53 111 0.0 0.0 0.00 0.00 0.00 70 1012.1
20260502112336 54 130 0.0 1.0 0.00 0.00 0.00 70 1012.4
20260502111834 53 105 0.0 2.0 0.00 0.00 0.00 70 1012.4
20260502111331 53 101 0.0 1.0 0.00 0.00 0.00 68 1012.3
20260502110828 53 147 0.0 0.0 0.00 0.00 0.00 69 1012.3
20260502110326 53 148 0.0 0.0 0.00 0.00 0.00 68 1011.9
20260502105823 53 103 0.0 0.0 0.00 0.00 0.00 68 1011.9
20260502105320 53 135 0.0 0.0 0.00 0.00 0.00 68 1012.5
20260502104818 53 139 0.0 0.0 0.00 0.00 0.00 70 1012.4
20260502104315 54 123 0.0 0.0 0.00 0.00 0.00 69 1012.2
20260502103812 54 127 0.0 0.0 0.00 0.00 0.00 71 1012.2
20260502103310 54 98 0.0 0.0 0.00 0.00 0.00 66 1011.6
20260502102807 54 145 0.0 0.0 0.00 0.00 0.00 69 1011.7
20260502102306 54 103 0.0 0.0 0.00 0.00 0.00 68 1011.9
20260502101801 54 146 0.0 0.0 0.00 0.00 0.00 69 1011.8
20260502101259 54 126 0.0 0.0 0.00 0.00 0.00 69 1012.0
20260502100757 54 126 0.0 0.0 0.00 0.00 0.00 69 1011.9
20260502100255 54 117 0.0 0.0 0.00 0.00 0.00 69 1011.9
20260502091229 55 62 0.0 0.0 0.00 0.00 0.00 62 1011.7
20260502090727 55 135 0.0 0.0 0.00 0.00 0.00 62 1011.3
20260502090223 55 55 1.0 1.0 0.00 0.00 0.00 61 1011.5
20260502071119 57 117 0.0 0.0 0.00 0.00 0.00 75 1012.1
20260502070617 57 125 0.0 0.0 0.00 0.00 0.00 75 1012.0
20260502070115 57 109 0.0 0.0 0.00 0.00 0.00 71 1012.0
20260502065613 57 111 0.0 0.0 0.00 0.00 0.00 70 1012.3
20260502065110 57 71 0.0 1.0 0.00 0.00 0.00 71 1012.4
20260502064609 57 111 0.0 0.0 0.00 0.00 0.00 72 1012.3
20260502064106 57 84 0.0 0.0 0.00 0.00 0.00 71 1012.5
20260502063603 58 48 0.0 1.0 0.00 0.00 0.00 70 1012.4
20260502063101 57 76 0.0 0.0 0.00 0.00 0.00 72 1012.4
20260502062558 57 85 0.0 0.0 0.00 0.00 0.00 74 1012.6
20260502062055 57 131 0.0 0.0 0.00 0.00 0.00 74 1012.7
20260502061553 58 135 0.0 0.0 0.00 0.00 0.00 82 1012.4
20260502061050 58 95 0.0 0.0 0.00 0.00 0.00 76 1012.6
20260502060545 58 90 0.0 0.0 0.00 0.00 0.00 77 1012.7
20260502060043 58 98 0.0 0.0 0.00 0.00 0.00 78 1012.5
20260502055540 58 63 0.0 0.0 0.00 0.00 0.00 81 1012.9
20260502055038 58 100 0.0 0.0 0.00 0.00 0.00 80 1013.0
20260502054537 58 101 0.0 0.0 0.00 0.00 0.00 83 1012.8
20260502054033 58 122 0.0 0.0 0.00 0.00 0.00 85 1012.7
20260502053530 58 122 0.0 0.0 0.00 0.00 0.00 86 1012.7
20260502053028 58 115 0.0 1.0 0.00 0.00 0.00 80 1012.5
20260502052527 58 121 1.0 2.0 0.00 0.00 0.00 81 1012.3
20260502052024 58 74 0.0 1.0 0.00 0.00 0.00 81 1012.3
20260502051522 58 89 0.0 0.0 0.00 0.00 0.00 82 1012.5
20260502051020 57 87 0.0 0.0 0.00 0.00 0.00 88 1012.5
20260502050515 57 112 2.0 2.0 0.00 0.00 0.00 87 1012.6
20260502050013 57 113 0.0 0.0 0.00 0.00 0.00 90 1012.5
20260502045509 57 105 0.0 0.0 0.00 0.00 0.00 90 1012.5
20260502045007 57 111 0.0 0.0 0.00 0.00 0.00 90 1012.3
20260502044503 57 91 0.0 0.0 0.00 0.00 0.00 89 1012.4
20260502043959 57 93 0.0 0.0 0.00 0.00 0.00 90 1012.4
20260502043457 57 112 0.0 0.0 0.00 0.00 0.00 92 1012.3
20260502042956 56 117 0.0 0.0 0.00 0.00 0.00 93 1012.6
20260502042454 56 111 0.0 0.0 0.00 0.00 0.00 94 1012.6
20260502041951 56 122 0.0 0.0 0.00 0.00 0.00 94 1012.4
20260502041449 56 111 0.0 0.0 0.00 0.00 0.00 93 1012.5
20260502040945 56 121 0.0 0.0 0.00 0.00 0.00 94 1012.8
20260502040442 56 111 0.0 0.0 0.00 0.00 0.00 94 1012.8
20260502035938 56 111 0.0 0.0 0.00 0.00 0.00 93 1012.8
20260502035434 56 111 0.0 0.0 0.00 0.00 0.00 93 1012.8
20260502034933 56 114 0.0 0.0 0.00 0.00 0.00 93 1012.9
20260502034431 56 119 0.0 0.0 0.00 0.00 0.00 93 1012.8
20260502033929 56 120 0.0 0.0 0.00 0.00 0.00 93 1012.9
20260502033426 56 120 0.0 0.0 0.00 0.00 0.00 93 1013.0
20260502032923 57 119 0.0 0.0 0.00 0.00 0.00 93 1012.9
20260502032419 57 120 0.0 0.0 0.00 0.00 0.00 93 1013.3
20260502031916 57 120 0.0 0.0 0.00 0.00 0.00 93 1013.5
20260502031415 57 117 0.0 0.0 0.00 0.00 0.00 92 1013.2
20260502030913 57 124 0.0 0.0 0.00 0.00 0.00 92 1013.1
20260502030411 57 124 0.0 0.0 0.00 0.00 0.00 92 1013.1
20260502025909 57 124 0.0 0.0 0.00 0.00 0.00 92 1013.1
20260502025405 57 124 0.0 0.0 0.00 0.00 0.00 92 1013.1
20260502024903 57 124 0.0 0.0 0.00 0.00 0.00 91 1013.3
20260502024401 57 124 0.0 0.0 0.00 0.00 0.00 91 1013.2
20260502023858 57 124 0.0 0.0 0.00 0.00 0.00 91 1013.1
20260502023356 57 124 0.0 0.0 0.00 0.00 0.00 90 1012.9
20260502022854 57 124 0.0 0.0 0.00 0.00 0.00 91 1013.1
20260502022349 57 125 0.0 0.0 0.00 0.00 0.00 91 1013.1
20260502021846 57 125 0.0 0.0 0.00 0.00 0.00 91 1013.1
20260502021344 57 125 0.0 0.0 0.00 0.00 0.00 91 1013.0
20260502020841 57 128 0.0 0.0 0.00 0.00 0.00 91 1013.0
20260502020339 57 131 0.0 0.0 0.00 0.00 0.00 91 1012.9
20260502015835 57 120 0.0 0.0 0.00 0.00 0.00 90 1012.9
20260502015332 57 120 0.0 0.0 0.00 0.00 0.00 91 1013.0
20260502014830 57 120 0.0 0.0 0.00 0.00 0.00 91 1012.6
20260502014327 57 120 0.0 0.0 0.00 0.00 0.00 91 1012.8
20260502013823 57 120 0.0 0.0 0.00 0.00 0.00 91 1012.8
20260502013319 57 120 0.0 0.0 0.00 0.00 0.00 91 1012.8
20260502012815 58 120 0.0 0.0 0.00 0.00 0.00 90 1012.6
20260502012313 58 120 0.0 0.0 0.00 0.00 0.00 90 1012.4
20260502011810 58 120 0.0 0.0 0.00 0.00 0.00 90 1012.4
20260502011306 58 120 0.0 0.0 0.00 0.00 0.00 89 1012.5
20260502010803 58 119 0.0 0.0 0.00 0.00 0.00 90 1012.6
20260502010300 58 119 0.0 0.0 0.00 0.00 0.00 90 1012.4
20260502005757 58 119 0.0 0.0 0.00 0.00 0.00 89 1012.4
20260502005255 58 119 0.0 0.0 0.00 0.00 0.00 88 1012.4
20260502004751 59 119 0.0 0.0 0.00 0.00 0.00 88 1012.1
20260502004248 59 120 0.0 0.0 0.00 0.00 0.00 88 1012.1
20260502003746 59 119 0.0 0.0 0.00 0.00 0.00 88 1012.0
20260502003243 59 145 0.0 0.0 0.00 0.00 0.00 87 1011.9
20260502002738 59 145 0.0 0.0 0.00 0.00 0.00 87 1012.1
20260502002236 59 145 0.0 0.0 0.00 0.00 0.00 85 1012.1
20260502001733 60 145 0.0 0.0 0.00 0.00 0.00 84 1012.0
20260502001231 60 145 0.0 0.0 0.00 0.00 0.00 84 1012.1
20260502000729 60 145 0.0 0.0 0.00 0.00 0.00 82 1011.9
20260502000227 60 145 0.0 0.0 0.00 0.00 0.00 83 1012.1
20260501235721 60 145 0.0 0.0 0.00 0.00 0.00 82 1011.9
20260501235218 61 145 0.0 0.0 0.00 0.00 0.00 81 1012.1
20260501234714 61 145 0.0 0.0 0.00 0.00 0.00 80 1011.9
20260501234211 61 145 0.0 0.0 0.00 0.00 0.00 79 1011.9
20260501233709 61 145 0.0 0.0 0.00 0.00 0.00 77 1011.7
20260501233206 62 145 0.0 0.0 0.00 0.00 0.00 80 1011.7
20260501232702 62 145 0.0 0.0 0.00 0.00 0.00 81 1011.7
20260501232159 62 146 0.0 0.0 0.00 0.00 0.00 80 1012.0
20260501231657 62 147 0.0 0.0 0.00 0.00 0.00 80 1011.8
20260501231155 62 147 0.0 0.0 0.00 0.00 0.00 80 1011.9
20260501230653 62 147 0.0 0.0 0.00 0.00 0.00 75 1012.0
20260501230151 63 147 0.0 0.0 0.00 0.00 0.00 72 1011.9
20260501225648 64 149 0.0 0.0 0.00 0.00 0.00 72 1011.9
20260501225144 64 145 0.0 0.0 0.00 0.00 0.00 70 1012.0
20260501224641 64 146 0.0 0.0 0.00 0.00 0.00 71 1012.1
20260501224139 64 147 0.0 0.0 0.00 0.00 0.00 72 1012.0
20260501223635 65 149 0.0 0.0 0.00 0.00 0.00 69 1011.5
20260501223132 65 147 0.0 0.0 0.00 0.00 0.00 70 1011.4
20260501222627 65 157 0.0 0.0 0.00 0.00 0.00 66 1011.5
20260501222125 65 160 1.0 2.0 0.00 0.00 0.00 66 1011.4
20260501221621 65 125 0.0 0.0 0.00 0.00 0.00 68 1011.4
20260501221119 66 120 0.0 0.0 0.00 0.00 0.00 63 1011.3
20260501220617 66 103 0.0 0.0 0.00 0.00 0.00 65 1011.1
20260501220113 66 54 0.0 1.0 0.00 0.00 0.00 67 1011.1
20260501215610 66 91 0.0 0.0 0.00 0.00 0.00 68 1011.4
20260501215105 66 62 1.0 2.0 0.00 0.00 0.00 62 1011.3
20260501214600 66 134 0.0 0.0 0.00 0.00 0.00 64 1011.4
20260501214056 66 128 0.0 0.0 0.00 0.00 0.00 67 1011.7
20260501213553 66 123 0.0 0.0 0.00 0.00 0.00 67 1011.7
20260501213049 66 128 0.0 0.0 0.00 0.00 0.00 68 1011.8
20260501212546 66 146 0.0 0.0 0.00 0.00 0.00 65 1012.0
20260501212043 66 88 0.0 0.0 0.00 0.00 0.00 66 1012.1
20260501211539 66 143 0.0 0.0 0.00 0.00 0.00 66 1012.2
20260501211038 65 153 0.0 0.0 0.00 0.00 0.00 60 1012.0
20260501210533 66 153 0.0 0.0 0.00 0.00 0.00 64 1012.2
20260501210031 66 156 0.0 0.0 0.00 0.00 0.00 63 1012.2
20260501205527 66 112 0.0 0.0 0.00 0.00 0.00 59 1012.3
20260501205025 66 91 0.0 0.0 0.00 0.00 0.00 64 1012.2
20260501204521 66 106 0.0 0.0 0.00 0.00 0.00 66 1012.3
20260501204017 66 110 0.0 0.0 0.00 0.00 0.00 65 1012.5
20260501203514 66 97 0.0 0.0 0.00 0.00 0.00 65 1012.6
20260501203012 66 66 0.0 1.0 0.00 0.00 0.00 63 1012.6
20260501202508 66 167 0.0 0.0 0.00 0.00 0.00 66 1012.6
20260501202004 66 133 0.0 0.0 0.00 0.00 0.00 67 1013.0
20260501201502 66 146 0.0 0.0 0.00 0.00 0.00 65 1013.1
20260501200959 66 151 0.0 0.0 0.00 0.00 0.00 66 1013.0
20260501200456 66 175 0.0 0.0 0.00 0.00 0.00 66 1013.1
20260501195953 66 146 0.0 0.0 0.00 0.00 0.00 70 1013.2
20260501195450 66 105 0.0 0.0 0.00 0.00 0.00 65 1013.0
20260501194945 66 173 0.0 0.0 0.00 0.00 0.00 65 1013.2
20260501194441 66 120 0.0 0.0 0.00 0.00 0.00 66 1013.1
20260501193937 65 120 0.0 0.0 0.00 0.00 0.00 68 1013.1
20260501193436 66 39 0.0 1.0 0.00 0.00 0.00 66 1013.3
20260501192933 66 146 0.0 0.0 0.00 0.00 0.00 65 1013.2
20260501192430 66 51 0.0 1.0 0.00 0.00 0.00 65 1013.1
20260501191927 66 99 0.0 0.0 0.00 0.00 0.00 63 1013.1
20260501191424 66 82 0.0 0.0 0.00 0.00 0.00 66 1013.3
20260501190922 66 91 0.0 0.0 0.00 0.00 0.00 65 1013.2
20260501190417 66 99 0.0 0.0 0.00 0.00 0.00 66 1013.2
20260501185912 67 105 0.0 0.0 0.00 0.00 0.00 64 1013.5
20260501185409 67 125 0.0 0.0 0.00 0.00 0.00 64 1013.1
20260501184904 67 103 0.0 0.0 0.00 0.00 0.00 62 1013.2
20260501184401 67 164 0.0 1.0 0.00 0.00 0.00 64 1013.3
20260501183856 66 98 0.0 0.0 0.00 0.00 0.00 65 1013.3
20260501183354 65 136 0.0 0.0 0.00 0.00 0.00 66 1013.5
20260501182850 65 168 0.0 0.0 0.00 0.00 0.00 68 1013.3
20260501182347 65 175 1.0 1.0 0.00 0.00 0.00 64 1013.6
20260501181843 66 149 0.0 0.0 0.00 0.00 0.00 64 1013.6
20260501181340 65 129 0.0 0.0 0.00 0.00 0.00 66 1013.6
20260501180838 65 97 0.0 0.0 0.00 0.00 0.00 65 1013.8
20260501180334 65 128 0.0 0.0 0.00 0.00 0.00 71 1013.9
20260501175831 64 97 0.0 0.0 0.00 0.00 0.00 68 1013.8
20260501175327 65 129 0.0 0.0 0.00 0.00 0.00 67 1013.8
20260501174825 64 133 0.0 0.0 0.00 0.00 0.00 67 1013.9
20260501174322 64 105 0.0 0.0 0.00 0.00 0.00 71 1013.9
20260501173820 64 100 0.0 0.0 0.00 0.00 0.00 68 1013.9
20260501173317 64 103 0.0 0.0 0.00 0.00 0.00 68 1013.5
20260501172812 64 96 0.0 0.0 0.00 0.00 0.00 67 1013.8
20260501172308 64 83 1.0 1.0 0.00 0.00 0.00 67 1013.8
20260501171803 64 95 0.0 0.0 0.00 0.00 0.00 67 1013.8
20260501171301 64 149 0.0 0.0 0.00 0.00 0.00 68 1013.7
20260501170757 64 132 0.0 0.0 0.00 0.00 0.00 67 1013.8
20260501170254 64 123 0.0 0.0 0.00 0.00 0.00 66 1013.8
20260501165751 65 129 0.0 0.0 0.00 0.00 0.00 66 1013.9
20260501165249 65 145 0.0 0.0 0.00 0.00 0.00 64 1013.8
20260501164747 64 97 0.0 0.0 0.00 0.00 0.00 66 1014.1
20260501164244 64 82 0.0 0.0 0.00 0.00 0.00 70 1014.0
20260501163739 62 84 0.0 0.0 0.00 0.00 0.00 67 1013.9
20260501163237 63 82 0.0 0.0 0.00 0.00 0.00 72 1014.3
20260501162733 63 116 0.0 0.0 0.00 0.00 0.00 69 1014.3
20260501162230 63 114 0.0 0.0 0.00 0.00 0.00 71 1014.5
20260501161727 63 84 0.0 0.0 0.00 0.00 0.00 71 1014.4
20260501161224 63 130 0.0 0.0 0.00 0.00 0.00 73 1014.2
20260501160720 62 130 0.0 0.0 0.00 0.00 0.00 73 1014.4
20260501160218 62 102 0.0 0.0 0.00 0.00 0.00 73 1014.3
20260501155714 62 101 0.0 0.0 0.00 0.00 0.00 72 1014.3
20260501155212 62 79 0.0 0.0 0.00 0.00 0.00 71 1014.2
20260501154708 62 84 0.0 0.0 0.00 0.00 0.00 71 1014.1
20260501154205 62 72 1.0 1.0 0.00 0.00 0.00 69 1014.4